Simultaneous Nadir Overpasses (SNOs) Predictions

Prediction of SNOs between METOP-A and NOAA-19 Satellite Orbit:

Table of predicted SNOs for the next 14.0 days since TLE Epoch: 12/5/2014
Index Date (METOP-A) Time (METOP-A) Lat,Lon (METOP-A) SZA (METOP-A ) Date (NOAA-19) Time (NOAA-19) Lat,Lon (NOAA-19) SZA (NOAA-19 ) Distance(km) Time Diff (sec)
1 12/10/2014 18:49:24 -74.79, 74.38 82.34 12/10/2014 18:48:13 -74.77, 72.78 82.34 46.77 71
2 12/10/2014 19:40:09 74.48,-119.13 97.35 12/10/2014 19:39:03 74.49,-119.15 97.37 1.30 66
3 12/10/2014 20:30:51 -74.48, 48.21 82.64 12/10/2014 20:30:09 -74.48, 48.09 82.64 3.49 42
4 12/10/2014 21:21:31 74.46,-144.52 97.34 12/10/2014 21:21:05 74.43,-144.51 97.32 2.81 26
5 12/10/2014 22:12:14 -74.41, 22.69 82.71 12/10/2014 22:12:11 -74.42, 22.73 82.69 1.91 3
6 12/10/2014 23:02:53 74.44,-169.92 97.33 12/10/2014 23:03:08 74.42,-170.00 97.31 2.93 15
7 12/10/2014 23:53:36 -74.39, -2.71 82.72 12/10/2014 23:54:14 -74.42, -2.76 82.69 3.27 38
8 12/11/2014 00:44:16 74.37, 164.56 97.26 12/11/2014 00:45:10 74.37, 164.64 97.26 2.19 54
9 12/11/2014 01:35:01 -74.22, -28.47 82.88 12/11/2014 01:36:14 -74.27, -27.87 82.84 18.93 73




NCC Satellite Simultaneous Nadir Overpasses (SNOs) Prediction Service
